Weather History for Pine Ridge, SD

Change the Weather History Date:

Friday, February 21, 2014

  Actual Average Record
Temperature  
Mean Temperature 36 °F 28 °F  
Max Temperature 45 °F 41 °F 59 °F (1998)
Min Temperature 26 °F 15 °F -2 °F (2011)
Degree Days  
Heating Degree Days 29 37  
Month to date heating degree days 951 824  
Since 1 July heating degree days 5136 5101  
Cooling Degree Days 0 0  
Month to date cooling degree days 0 0  
Year to date cooling degree days 0 0  
Moisture  
Dew Point 17 °F    
Average Humidity 47    
Maximum Humidity 69    
Minimum Humidity 25    
Precipitation  
Precipitation 0.00 in 0.01 in 0.10 in (2013)
Month to date precipitation 0.12 0.34  
Year to date precipitation 0.21 0.66  
Sea Level Pressure  
Sea Level Pressure 29.82 in    
Wind  
Wind Speed 12 mph (WNW)    
Max Wind Speed 26 mph    
Max Gust Speed 35 mph    
Visibility 10 miles    
Events      
T = Trace of Precipitation, MM = Missing Value Source: NWS Daily Summary

Daily Weather History Graph

Daily Weather History Graph

Search for Another Location

Airport:

Trip Planner

Search our weather history database for the weather conditions in past years. The results will help you decide how hot, cold, wet, or windy it might be!

Date:

Astronomy

Feb. 21, 2014 Rise Set
Actual Time 6:38 AM MST 5:29 PM MST
Civil Twilight 6:09 AM MST 5:58 PM MST
Nautical Twilight 5:36 AM MST 6:31 PM MST
Astronomical Twilight 5:04 AM MST 7:04 PM MST
Moon No Moon Rise 9:54 AM MST (2/21)
Length of Visible Light 11h 48m
Length of Day
10h 50m
Waning Gibbous, 60% of the Moon is Illuminated
Feb 21
Waning Gibbous
Feb 22
Last Quarter
Mar 1
New
Mar 8
First Quarter
Mar 16
Full

Hourly Weather History & Observations

Time (MST) Temp. Windchill Dew Point Humidity Pressure Visibility Wind Dir Wind Speed Gust Speed Precip Events Conditions
12:52 AM 30.0 °F 22.4 °F 15.1 °F 54% 29.78 in 10.0 mi West 8.1 mph - N/A   Overcast
1:52 AM 30.0 °F 25.2 °F 16.0 °F 56% 29.78 in 10.0 mi West 4.6 mph - N/A   Overcast
2:52 AM 28.0 °F 22.8 °F 17.1 °F 63% 29.77 in 10.0 mi West 4.6 mph - N/A   Partly Cloudy
3:52 AM 28.0 °F 21.7 °F 17.1 °F 63% 29.78 in 10.0 mi West 5.8 mph - N/A   Partly Cloudy
4:52 AM 30.9 °F 24.3 °F 19.0 °F 61% 29.79 in 10.0 mi WNW 6.9 mph - N/A   Clear
5:52 AM 32.0 °F 23.0 °F 21.0 °F 64% 29.81 in 10.0 mi WNW 11.5 mph - N/A   Clear
6:52 AM 30.9 °F 21.2 °F 21.9 °F 69% 29.83 in 10.0 mi West 12.7 mph 21.9 mph N/A   Clear
7:52 AM 33.1 °F 23.0 °F 21.9 °F 64% 29.86 in 10.0 mi West 15.0 mph 23.0 mph N/A   Clear
8:52 AM 36.0 °F 25.6 °F 21.0 °F 55% 29.85 in 10.0 mi West 18.4 mph 26.5 mph N/A   Clear
9:52 AM 39.0 °F 29.6 °F 19.9 °F 46% 29.84 in 10.0 mi West 18.4 mph 27.6 mph N/A   Clear
10:52 AM 41.0 °F 32.2 °F 18.0 °F 40% 29.82 in 10.0 mi WNW 18.4 mph 24.2 mph N/A   Clear
11:52 AM 43.0 °F 34.8 °F 15.1 °F 32% 29.79 in 10.0 mi WNW 18.4 mph 29.9 mph N/A   Scattered Clouds
12:52 PM 43.0 °F 34.5 °F 12.0 °F 28% 29.77 in 10.0 mi WNW 19.6 mph 34.5 mph N/A   Partly Cloudy
1:52 PM 45.0 °F 36.6 °F 12.9 °F 27% 29.76 in 10.0 mi WNW 21.9 mph 33.4 mph N/A   Clear
2:52 PM 44.1 °F 35.9 °F 10.9 °F 26% 29.77 in 10.0 mi NW 19.6 mph 28.8 mph N/A   Mostly Cloudy
3:52 PM 41.0 °F 33.5 °F 10.9 °F 29% 29.79 in 10.0 mi NW 13.8 mph 24.2 mph N/A   Partly Cloudy
4:52 PM 39.0 °F 30.3 °F 12.0 °F 33% 29.80 in 10.0 mi WNW 16.1 mph 23.0 mph N/A   Mostly Cloudy
5:52 PM 37.0 °F 29.3 °F 14.0 °F 39% 29.82 in 10.0 mi West 11.5 mph 19.6 mph N/A   Mostly Cloudy
6:52 PM 34.0 °F 28.8 °F 17.1 °F 50% 29.84 in 10.0 mi WNW 5.8 mph - N/A   Mostly Cloudy
7:52 PM 34.0 °F 25.0 °F 18.0 °F 52% 29.87 in 10.0 mi West 12.7 mph - N/A   Mostly Cloudy
8:52 PM 33.1 °F 27.7 °F 19.0 °F 56% 29.88 in 10.0 mi West 5.8 mph - N/A   Overcast
9:52 PM 32.0 °F 24.8 °F 19.9 °F 61% 29.91 in 10.0 mi WNW 8.1 mph - N/A   Mostly Cloudy
10:52 PM 30.0 °F - 21.9 °F 72% 29.92 in 10.0 mi Calm Calm - N/A   Overcast
11:52 PM 27.0 °F - 21.0 °F 78% 29.93 in 10.0 mi Calm Calm - N/A   Overcast